Llano, TX

3:02 PM CDT on August 23, 2017 (GMT -0500)
Llano

Weather History for KAQO - April, 2014

Change the Weather History Date:

Friday, April 4, 2014

  Actual Average (KBMQ) Record (KBMQ)
Temperature  
Mean Temperature 62 °F -  
Max Temperature 75 °F 72 °F 87 °F (2017)
Min Temperature 50 °F 51 °F 44 °F (2013)
Degree Days  
Heating Degree Days 2    
Growing Degree Days 12 (Base 50)    
Moisture  
Dew Point 29 °F    
Average Humidity 30    
Maximum Humidity 50    
Minimum Humidity 11    
Precipitation  
Precipitation 0.00 in - - ()
Sea Level Pressure  
Sea Level Pressure 30.11 in    
Wind  
Wind Speed 12 mph (NE)    
Max Wind Speed 20 mph    
Max Gust Speed 25 mph    
Visibility 10 miles    
Events Thunderstorm    
Averages and records for this station are not official NWS values.
T = Trace of Precipitation, MM = Missing Value Source: NWS Daily Summary

Daily Weather History Graph

Daily Weather History Graph

Search for Another Location

Airport or City:

Trip Planner

Search our weather history database for the weather conditions in past years. The results will help you decide how hot, cold, wet, or windy it might be!

Date:

Astronomy

Apr. 04, 2014 Rise Set
Actual Time 7:19 AM CDT 7:55 PM CDT
Civil Twilight 6:55 AM CDT 8:20 PM CDT
Nautical Twilight 6:27 AM CDT 8:48 PM CDT
Astronomical Twilight 5:57 AM CDT 9:17 PM CDT
Moon 10:52 AM CDT (4/4) 12:01 AM CDT (4/4)
Length of Visible Light 13h 24m
Length of Day
12h 35m
Waxing Crescent, 25% of the Moon is Illuminated
Apr 4
Waxing Crescent
Apr 7
First Quarter
Apr 15
Full
Apr 22
Last Quarter
Apr 29
New

Hourly Weather History & Observations

Time (CDT) Temp. Dew Point Humidity Pressure Visibility Wind Dir Wind Speed Gust Speed Precip Events Conditions
12:10 AM 75.2 °F 21.2 °F 13% 29.91 in 8.0 mi North 19.6 mph 24.2 mph N/A   Clear
12:30 AM 73.4 °F 17.6 °F 12% 29.90 in 10.0 mi North 15.0 mph 21.9 mph N/A   Clear
12:50 AM 73.4 °F 15.8 °F 11% 29.91 in 10.0 mi North 15.0 mph 21.9 mph N/A   Clear
1:10 AM 71.6 °F 14.0 °F 11% 29.92 in 10.0 mi North 11.5 mph 16.1 mph N/A   Clear
1:50 AM 71.6 °F 14.0 °F 11% 29.98 in 10.0 mi NW 4.6 mph - N/A   Clear
2:10 AM 71.6 °F 17.6 °F 13% 30.00 in 10.0 mi North 17.3 mph 25.3 mph N/A   Partly Cloudy
2:30 AM 69.8 °F 26.6 °F 20% 30.00 in 10.0 mi North 17.3 mph 25.3 mph N/A   Clear
2:50 AM 64.4 °F 32.0 °F 30% 30.01 in 10.0 mi North 16.1 mph 20.7 mph N/A   Clear
3:10 AM 62.6 °F 33.8 °F 34% 30.03 in 10.0 mi North 19.6 mph 25.3 mph N/A   Clear
3:30 AM 62.6 °F 33.8 °F 34% 30.05 in 10.0 mi North 18.4 mph 24.2 mph N/A Thunderstorm Clear
3:50 AM 60.8 °F 33.8 °F 36% 30.06 in 10.0 mi North 11.5 mph 25.3 mph N/A   Clear
4:10 AM 60.8 °F 33.8 °F 36% 30.06 in 10.0 mi North 19.6 mph 23.0 mph N/A   Light Drizzle
4:30 AM 59.0 °F 32.0 °F 36% 30.07 in 10.0 mi North 16.1 mph 23.0 mph N/A   Clear
4:50 AM 57.2 °F 32.0 °F 38% 30.08 in 10.0 mi North 15.0 mph - N/A   Clear
5:10 AM 57.2 °F 32.0 °F 38% 30.07 in 10.0 mi North 11.5 mph 17.3 mph N/A   Clear
5:30 AM 55.4 °F 32.0 °F 41% 30.07 in 10.0 mi North 16.1 mph 25.3 mph N/A   Clear
5:50 AM 53.6 °F 32.0 °F 44% 30.08 in 10.0 mi North 13.8 mph 19.6 mph N/A   Clear
6:10 AM 53.6 °F 32.0 °F 44% 30.10 in 10.0 mi North 8.1 mph - N/A   Clear
6:30 AM 51.8 °F 32.0 °F 47% 30.11 in 10.0 mi NNE 9.2 mph 17.3 mph N/A   Clear
6:50 AM 51.8 °F 32.0 °F 47% 30.12 in 10.0 mi NNE 12.7 mph 18.4 mph N/A   Clear
7:10 AM 51.8 °F 32.0 °F 47% 30.13 in 10.0 mi NNE 5.8 mph - N/A   Clear
7:30 AM 50.0 °F 32.0 °F 50% 30.14 in 10.0 mi North 8.1 mph - N/A   Clear
7:50 AM 50.0 °F 32.0 °F 50% 30.16 in 10.0 mi North 10.4 mph - N/A   Clear
8:10 AM 50.0 °F 32.0 °F 50% 30.18 in 10.0 mi North 10.4 mph - N/A   Clear
8:30 AM 51.8 °F 32.0 °F 47% 30.18 in 10.0 mi NNE 9.2 mph 16.1 mph N/A   Clear
8:50 AM 51.8 °F 32.0 °F 47% 30.19 in 10.0 mi NNE 11.5 mph 18.4 mph N/A   Clear
9:10 AM 53.6 °F 32.0 °F 44% 30.20 in 10.0 mi NNE 9.2 mph - N/A   Partly Cloudy
9:30 AM 53.6 °F 32.0 °F 44% 30.20 in 10.0 mi North 13.8 mph 18.4 mph N/A   Partly Cloudy
9:50 AM 55.4 °F 30.2 °F 38% 30.20 in 10.0 mi North 13.8 mph 20.7 mph N/A   Partly Cloudy
10:10 AM 55.4 °F 28.4 °F 36% 30.20 in 10.0 mi North 15.0 mph 19.6 mph N/A   Clear
10:50 AM 59.0 °F 28.4 °F 31% 30.20 in 10.0 mi NE 13.8 mph 21.9 mph N/A   Clear
11:10 AM 60.8 °F 28.4 °F 29% 30.21 in 10.0 mi NE 12.7 mph 17.3 mph N/A   Clear
11:30 AM 60.8 °F 28.4 °F 29% 30.20 in 10.0 mi NE 10.4 mph 17.3 mph N/A   Clear
11:50 AM 62.6 °F 28.4 °F 27% 30.21 in 10.0 mi NE 11.5 mph 23.0 mph N/A   Clear
12:10 PM 64.4 °F 28.4 °F 26% 30.20 in 10.0 mi NE 13.8 mph 20.7 mph N/A   Clear
12:50 PM 64.4 °F 28.4 °F 26% 30.19 in 10.0 mi ENE 10.4 mph 18.4 mph N/A   Clear
1:10 PM 66.2 °F 26.6 °F 23% 30.19 in 10.0 mi NE 12.7 mph 17.3 mph N/A   Clear
1:30 PM 66.2 °F 28.4 °F 24% 30.17 in 10.0 mi NNE 13.8 mph 23.0 mph N/A   Clear
1:50 PM 69.8 °F 26.6 °F 20% 30.17 in 10.0 mi NNE 11.5 mph 17.3 mph N/A   Clear
2:10 PM 69.8 °F 26.6 °F 20% 30.16 in 10.0 mi NE 17.3 mph 23.0 mph N/A   Clear
2:30 PM 69.8 °F 26.6 °F 20% 30.15 in 10.0 mi ENE 12.7 mph 19.6 mph N/A   Clear
2:50 PM 69.8 °F 26.6 °F 20% 30.14 in 10.0 mi East 5.8 mph 20.7 mph N/A   Clear
3:10 PM 69.8 °F 26.6 °F 20% 30.12 in 10.0 mi East 15.0 mph - N/A   Clear
3:30 PM 71.6 °F 26.6 °F 19% 30.11 in 10.0 mi NE 12.7 mph 16.1 mph N/A   Clear
3:50 PM 71.6 °F 28.4 °F 20% 30.10 in 10.0 mi NE 13.8 mph 18.4 mph N/A   Clear
4:10 PM 71.6 °F 28.4 °F 20% 30.10 in 10.0 mi East 9.2 mph - N/A   Clear
4:30 PM 71.6 °F 28.4 °F 20% 30.09 in 10.0 mi NE 10.4 mph 20.7 mph N/A   Clear
4:50 PM 69.8 °F 28.4 °F 21% 30.09 in 10.0 mi NE 10.4 mph - N/A   Clear
5:10 PM 71.6 °F 28.4 °F 20% 30.08 in 10.0 mi East 9.2 mph - N/A   Clear
5:30 PM 71.6 °F 28.4 °F 20% 30.08 in 10.0 mi East 9.2 mph - N/A   Clear
5:50 PM 69.8 °F 28.4 °F 21% 30.09 in 10.0 mi East 9.2 mph - N/A   Clear
6:10 PM 69.8 °F 26.6 °F 20% 30.08 in 10.0 mi East 9.2 mph - N/A   Clear
6:30 PM 68.0 °F 28.4 °F 23% 30.09 in 10.0 mi ENE 6.9 mph - N/A   Clear
6:50 PM 68.0 °F 28.4 °F 23% 30.09 in 10.0 mi East 10.4 mph - N/A   Clear
7:10 PM 66.2 °F 26.6 °F 23% 30.08 in 10.0 mi East 9.2 mph - N/A   Clear
7:30 PM 64.4 °F 28.4 °F 26% 30.09 in 10.0 mi ENE 6.9 mph - N/A   Clear
7:50 PM 64.4 °F 28.4 °F 26% 30.09 in 10.0 mi ENE 4.6 mph - N/A   Clear
8:10 PM 62.6 °F 30.2 °F 30% 30.09 in 10.0 mi Calm Calm - N/A   Clear
8:30 PM 62.6 °F 30.2 °F 30% 30.10 in 10.0 mi Calm Calm - N/A   Clear
8:50 PM 60.8 °F 30.2 °F 31% 30.10 in 10.0 mi East 3.5 mph - N/A   Clear
9:10 PM 60.8 °F 30.2 °F 31% 30.11 in 10.0 mi Calm Calm - N/A   Clear
9:30 PM 59.0 °F 32.0 °F 36% 30.12 in 10.0 mi Calm Calm - N/A   Clear
9:50 PM 57.2 °F 32.0 °F 38% 30.13 in 10.0 mi Calm Calm - N/A   Clear
10:10 PM 57.2 °F 32.0 °F 38% 30.14 in 10.0 mi Calm Calm - N/A   Clear
10:30 PM 57.2 °F 32.0 °F 38% 30.14 in 10.0 mi Calm Calm - N/A   Clear
10:50 PM 57.2 °F 32.0 °F 38% 30.14 in 10.0 mi East 5.8 mph - N/A   Clear
11:10 PM 57.2 °F 32.0 °F 38% 30.13 in 10.0 mi East 3.5 mph - N/A   Clear
11:50 PM 55.4 °F 33.8 °F 44% 30.12 in 10.0 mi Calm Calm - N/A   Clear